• In Belgium
  • List of Countries
  • For 7 days
  • Water Temperature
  • Satellite Maps
  • Weather Map
  • Weather Widgets
  • user-avatar
    Login

    Hourly Weather Compton

    Today, 21 June, Thursday

    Time Temperature Precipitation Wind Pressure Humidity
    00:00 +23°C° 0 mm 2 mps 758 mmHg 72%
    01:00 +23°C° 0 mm 2 mps 758 mmHg 71%
    02:00 +22°C° 0 mm 1 mps 758 mmHg 70%
    03:00 +22°C° 0 mm 1 mps 758 mmHg 69%
    04:00 +22°C° 0 mm 1 mps 758 mmHg 69%
    05:00 +23°C° 0 mm 1 mps 758 mmHg 64%
    06:00 +25°C° 0 mm 1 mps 757 mmHg 59%
    07:00 +26°C° 0 mm 1 mps 757 mmHg 54%
    08:00 +28°C° 0 mm 1 mps 758 mmHg 49%
    09:00 +29°C° 0 mm 2 mps 758 mmHg 44%
    10:00 +31°C° 0 mm 2 mps 758 mmHg 39%
    11:00 +33°C° 0 mm 3 mps 757 mmHg 37%
    12:00 +34°C° 0 mm 3 mps 757 mmHg 36%
    13:00 +35°C° 0 mm 3 mps 757 mmHg 34%
    14:00 +34°C° 0 mm 3 mps 757 mmHg 35%
    15:00 +34°C° 0 mm 3 mps 757 mmHg 35%
    16:00 +34°C° 0 mm 3 mps 756 mmHg 35%
    17:00 +33°C° 0 mm 3 mps 756 mmHg 39%
    18:00 +30°C° 0 mm 2 mps 756 mmHg 43%
    19:00 +29°C° 0 mm 2 mps 756 mmHg 46%
    20:00 +28°C° 0 mm 2 mps 757 mmHg 49%
    21:00 +27°C° 0 mm 1 mps 757 mmHg 52%
    22:00 +26°C° 0 mm 1 mps 757 mmHg 55%
    23:00 +26°C° 0 mm 1 mps 757 mmHg 56%

    Tomorrow, 22 June, Friday

    Time Temperature Precipitation Wind Pressure Humidity
    00:00 +25°C° 0 mm 1 mps 757 mmHg 57%
    01:00 +25°C° 0 mm 1 mps 756 mmHg 57%
    02:00 +25°C° 0 mm 1 mps 756 mmHg 57%
    03:00 +24°C° 0 mm 1 mps 756 mmHg 57%
    04:00 +22°C° 0 mm 0 mps 756 mmHg 57%
    05:00 +25°C° 0 mm 1 mps 756 mmHg 52%
    06:00 +27°C° 0 mm 1 mps 756 mmHg 48%
    07:00 +28°C° 0 mm 1 mps 757 mmHg 43%
    08:00 +30°C° 0 mm 1 mps 756 mmHg 39%
    09:00 +31°C° 0 mm 2 mps 756 mmHg 35%
    10:00 +34°C° 0 mm 2 mps 756 mmHg 30%
    11:00 +35°C° 0 mm 3 mps 756 mmHg 29%
    12:00 +36°C° 0 mm 3 mps 755 mmHg 28%
    13:00 +37°C° 0 mm 4 mps 755 mmHg 26%
    14:00 +37°C° 0 mm 4 mps 755 mmHg 27%
    15:00 +36°C° 0 mm 4 mps 754 mmHg 27%
    16:00 +36°C° 0 mm 4 mps 754 mmHg 27%
    17:00 +35°C° 0 mm 3 mps 754 mmHg 30%
    18:00 +33°C° 0 mm 3 mps 754 mmHg 33%
    19:00 +31°C° 0 mm 2 mps 754 mmHg 36%
    20:00 +30°C° 0 mm 2 mps 754 mmHg 39%
    21:00 +29°C° 0 mm 2 mps 754 mmHg 41%
    22:00 +28°C° 0 mm 1 mps 754 mmHg 44%
    23:00 +27°C° 0 mm 1 mps 754 mmHg 45%

    Day after tomorrow, 23 June, Saturday

    Time Temperature Precipitation Wind Pressure Humidity
    00:00 +27°C° 0 mm 1 mps 754 mmHg 46%
    01:00 +26°C° 0 mm 1 mps 754 mmHg 47%
    02:00 +26°C° 0 mm 1 mps 753 mmHg 48%
    03:00 +25°C° 0 mm 1 mps 753 mmHg 48%
    04:00 +25°C° 0 mm 1 mps 753 mmHg 49%
    05:00 +26°C° 0 mm 1 mps 753 mmHg 46%
    06:00 +27°C° 0 mm 2 mps 753 mmHg 43%
    07:00 +28°C° 0 mm 2 mps 754 mmHg 41%
    08:00 +29°C° 0 mm 2 mps 754 mmHg 37%
    09:00 +31°C° 0 mm 3 mps 754 mmHg 34%
    10:00 +33°C° 0 mm 3 mps 754 mmHg 31%
    11:00 +34°C° 0 mm 3 mps 754 mmHg 29%
    12:00 +34°C° 0 mm 4 mps 753 mmHg 28%
    13:00 +35°C° 0 mm 4 mps 753 mmHg 27%
    14:00 +35°C° 0 mm 4 mps 753 mmHg 28%
    15:00 +34°C° 0 mm 4 mps 753 mmHg 28%
    16:00 +34°C° 0 mm 4 mps 752 mmHg 29%
    17:00 +31°C° 0 mm 3 mps 753 mmHg 32%
    18:00 +30°C° 0 mm 3 mps 753 mmHg 35%
    19:00 +28°C° 0 mm 3 mps 754 mmHg 38%
    20:00 +28°C° 0 mm 3 mps 754 mmHg 41%
    21:00 +27°C° 0 mm 3 mps 754 mmHg 44%
    22:00 +26°C° 0 mm 3 mps 755 mmHg 48%
    23:00 +25°C° 0 mm 3 mps 755 mmHg 50%

    24 June, Sunday

    Time Temperature Precipitation Wind Pressure Humidity
    00:00 +25°C° 0 mm 2 mps 755 mmHg 52%
    01:00 +24°C° 0 mm 2 mps 755 mmHg 55%
    02:00 +24°C° 0 mm 2 mps 755 mmHg 56%
    03:00 +24°C° 0 mm 2 mps 755 mmHg 58%
    04:00 +23°C° 0 mm 2 mps 755 mmHg 59%
    05:00 +24°C° 0 mm 2 mps 755 mmHg 57%
    06:00 +25°C° 0 mm 2 mps 756 mmHg 54%
    07:00 +26°C° 0 mm 2 mps 756 mmHg 52%
    08:00 +27°C° 0 mm 3 mps 756 mmHg 48%
    09:00 +28°C° 0 mm 3 mps 756 mmHg 44%
    10:00 +30°C° 0 mm 3 mps 756 mmHg 40%
    11:00 +30°C° 0 mm 4 mps 756 mmHg 38%
    12:00 +32°C° 0 mm 4 mps 756 mmHg 37%
    13:00 +33°C° 0 mm 4 mps 756 mmHg 35%
    14:00 +33°C° 0 mm 4 mps 756 mmHg 35%
    15:00 +31°C° 0 mm 3 mps 756 mmHg 35%
    16:00 +31°C° 0 mm 3 mps 756 mmHg 35%
    17:00 +30°C° 0 mm 3 mps 756 mmHg 38%
    18:00 +29°C° 0 mm 3 mps 756 mmHg 41%
    19:00 +28°C° 0 mm 2 mps 756 mmHg 44%
    20:00 +27°C° 0 mm 2 mps 757 mmHg 47%
    21:00 +26°C° 0 mm 2 mps 757 mmHg 49%
    22:00 +25°C° 0 mm 1 mps 757 mmHg 52%
    23:00 +25°C° 0 mm 1 mps 757 mmHg 53%

    25 June, Monday

    Time Temperature Precipitation Wind Pressure Humidity
    00:00 +25°C° 0 mm 1 mps 757 mmHg 54%
    01:00 +24°C° 0 mm 1 mps 757 mmHg 55%
    02:00 +24°C° 0 mm 1 mps 757 mmHg 56%
    03:00 +24°C° 0 mm 1 mps 757 mmHg 56%
    04:00 +23°C° 0 mm 1 mps 757 mmHg 57%
    05:00 +24°C° 0 mm 1 mps 757 mmHg 53%
    06:00 +25°C° 0 mm 1 mps 757 mmHg 50%
    07:00 +26°C° 0 mm 1 mps 758 mmHg 46%
    08:00 +28°C° 0 mm 1 mps 758 mmHg 42%
    09:00 +29°C° 0 mm 2 mps 758 mmHg 37%
    10:00 +31°C° 0 mm 3 mps 758 mmHg 33%
    11:00 +33°C° 0 mm 3 mps 757 mmHg 31%
    12:00 +33°C° 0 mm 3 mps 757 mmHg 29%
    13:00 +34°C° 0 mm 4 mps 757 mmHg 27%
    14:00 +34°C° 0 mm 4 mps 757 mmHg 28%
    15:00 +34°C° 0 mm 4 mps 756 mmHg 28%
    16:00 +34°C° 0 mm 4 mps 756 mmHg 28%
    17:00 +33°C° 0 mm 4 mps 756 mmHg 31%
    18:00 +30°C° 0 mm 3 mps 756 mmHg 33%
    19:00 +29°C° 0 mm 3 mps 757 mmHg 36%
    20:00 +28°C° 0 mm 3 mps 757 mmHg 39%
    21:00 +28°C° 0 mm 2 mps 757 mmHg 42%
    22:00 +27°C° 0 mm 2 mps 758 mmHg 45%
    23:00 +26°C° 0 mm 2 mps 757 mmHg 46%

    26 June, Tuesday

    Time Temperature Precipitation Wind Pressure Humidity
    00:00 +26°C° 0 mm 1 mps 757 mmHg 48%
    01:00 +25°C° 0 mm 1 mps 757 mmHg 50%
    02:00 +25°C° 0 mm 1 mps 757 mmHg 51%
    03:00 +25°C° 0 mm 1 mps 757 mmHg 52%
    04:00 +25°C° 0 mm 1 mps 757 mmHg 53%
    05:00 +25°C° 0 mm 1 mps 757 mmHg 50%
    06:00 +26°C° 0 mm 1 mps 758 mmHg 47%
    07:00 +27°C° 0 mm 1 mps 758 mmHg 45%
    08:00 +29°C° 0 mm 2 mps 758 mmHg 41%
    09:00 +30°C° 0 mm 2 mps 758 mmHg 37%
    10:00 +33°C° 0 mm 3 mps 758 mmHg 33%
    11:00 +34°C° 0 mm 3 mps 757 mmHg 32%
    12:00 +35°C° 0 mm 3 mps 757 mmHg 30%
    13:00 +36°C° 0 mm 4 mps 757 mmHg 29%
    14:00 +35°C° 0 mm 4 mps 757 mmHg 30%
    15:00 +35°C° 0 mm 4 mps 756 mmHg 30%
    16:00 +35°C° 0 mm 4 mps 756 mmHg 31%
    17:00 +34°C° 0 mm 3 mps 756 mmHg 34%
    18:00 +31°C° 0 mm 3 mps 757 mmHg 37%
    19:00 +30°C° 0 mm 2 mps 757 mmHg 40%
    20:00 +29°C° 0 mm 2 mps 757 mmHg 42%
    21:00 +28°C° 0 mm 2 mps 757 mmHg 45%
    22:00 +27°C° 0 mm 2 mps 757 mmHg 47%
    23:00 +27°C° 0 mm 1 mps 757 mmHg 49%
    Show more